Time,TemperatureF,DewpointF,PressureIn,WindDirection,WindDirectionDegrees,WindSpeedMPH,WindSpeedGustMPH,Humidity,HourlyPrecipIn,Conditions,Clouds,dailyrainin,SoftwareType,DateUTC
2013-11-04 00:03:00,47.1,27.9,29.84,NNW,334,1.0,3.0,47,0.00,,,0.00,WeatherCatV1.21B27,2013-11-04 08:03:00,
2013-11-04 00:08:00,47.3,28.6,29.84,NNW,336,1.0,2.0,48,0.00,,,0.00,WeatherCatV1.21B27,2013-11-04 08:08:00,
2013-11-04 00:13:00,47.2,29.5,29.84,NNW,336,0.0,0.0,50,0.00,,,0.00,WeatherCatV1.21B27,2013-11-04 08:13:00,
2013-11-04 00:18:00,47.0,31.2,29.85,NNW,335,1.0,2.0,54,0.00,,,0.00,WeatherCatV1.21B27,2013-11-04 08:18:00,
2013-11-04 00:23:00,46.6,31.3,29.85,NNW,336,1.0,3.0,55,0.00,,,0.00,WeatherCatV1.21B27,2013-11-04 08:23:00,
2013-11-04 00:28:00,46.5,30.3,29.85,NNW,331,1.0,2.0,53,0.00,,,0.00,WeatherCatV1.21B27,2013-11-04 08:28:00,
2013-11-04 00:33:00,46.5,29.8,29.84,NNW,331,2.0,2.0,52,0.00,,,0.00,WeatherCatV1.21B27,2013-11-04 08:33:00,
2013-11-04 00:38:00,46.5,28.4,29.84,NNW,333,0.0,3.0,49,0.00,,,0.00,WeatherCatV1.21B27,2013-11-04 08:38:00,
2013-11-04 00:43:00,46.5,29.4,29.84,South,173,0.0,1.0,51,0.00,,,0.00,WeatherCatV1.21B27,2013-11-04 08:43:00,
2013-11-04 00:48:00,46.5,28.4,29.84,South,173,0.0,0.0,49,0.00,,,0.00,WeatherCatV1.21B27,2013-11-04 08:48:00,
2013-11-04 00:53:00,46.4,28.3,29.84,South,173,0.0,0.0,49,0.00,,,0.00,WeatherCatV1.21B27,2013-11-04 08:53:00,
2013-11-04 00:58:00,46.3,28.2,29.84,South,173,0.0,0.0,49,0.00,,,0.00,WeatherCatV1.21B27,2013-11-04 08:58:00,
2013-11-04 01:03:00,46.2,28.1,29.84,South,173,0.0,0.0,49,0.00,,,0.00,WeatherCatV1.21B27,2013-11-04 09:03:00,
2013-11-04 01:08:00,46.1,28.5,29.84,South,173,0.0,0.0,50,0.00,,,0.00,WeatherCatV1.21B27,2013-11-04 09:08:00,
2013-11-04 01:13:00,46.0,28.4,29.84,WSW,241,0.0,0.0,50,0.00,,,0.00,WeatherCatV1.21B27,2013-11-04 09:13:00,
2013-11-04 01:18:00,46.0,28.9,29.85,WSW,241,0.0,0.0,51,0.00,,,0.00,WeatherCatV1.21B27,2013-11-04 09:18:00,
2013-11-04 01:23:00,46.0,28.9,29.85,WSW,241,0.0,0.0,51,0.00,,,0.00,WeatherCatV1.21B27,2013-11-04 09:23:00,
2013-11-04 01:28:00,45.9,30.2,29.85,NNW,331,0.0,1.0,54,0.00,,,0.00,WeatherCatV1.21B27,2013-11-04 09:28:00,
2013-11-04 01:33:00,45.8,31.9,29.85,NNW,339,1.0,2.0,58,0.00,,,0.00,WeatherCatV1.21B27,2013-11-04 09:33:00,
2013-11-04 01:38:00,45.8,33.5,29.85,NNW,339,2.0,3.0,62,0.00,,,0.00,WeatherCatV1.21B27,2013-11-04 09:38:00,
2013-11-04 01:43:00,45.4,33.9,29.85,NNW,338,2.0,4.0,64,0.00,,,0.00,WeatherCatV1.21B27,2013-11-04 09:43:00,
2013-11-04 01:48:00,45.1,34.0,29.84,North,354,1.0,3.0,65,0.00,,,0.00,WeatherCatV1.21B27,2013-11-04 09:48:00,
2013-11-04 01:53:00,45.1,34.0,29.84,NNW,329,3.0,5.0,65,0.00,,,0.00,WeatherCatV1.21B27,2013-11-04 09:53:00,
2013-11-04 01:58:00,45.1,34.0,29.84,NNW,341,2.0,6.0,65,0.00,,,0.00,WeatherCatV1.21B27,2013-11-04 09:58:00,
2013-11-04 02:03:00,45.2,33.4,29.84,NNW,330,1.0,6.0,63,0.00,,,0.00,WeatherCatV1.21B27,2013-11-04 10:03:00,
2013-11-04 02:08:00,45.3,32.7,29.84,North,2,3.0,5.0,61,0.00,,,0.00,WeatherCatV1.21B27,2013-11-04 10:08:00,
2013-11-04 02:13:00,45.4,32.3,29.84,NNW,344,3.0,7.0,60,0.00,,,0.00,WeatherCatV1.21B27,2013-11-04 10:13:00,
2013-11-04 02:18:00,45.4,31.9,29.83,NNW,336,3.0,4.0,59,0.00,,,0.00,WeatherCatV1.21B27,2013-11-04 10:18:00,
2013-11-04 02:23:00,45.8,28.7,29.83,NNW,336,2.0,5.0,51,0.00,,,0.00,WeatherCatV1.21B27,2013-11-04 10:23:00,
2013-11-04 02:28:00,46.4,27.8,29.83,NNE,33,0.0,7.0,48,0.00,,,0.00,WeatherCatV1.21B27,2013-11-04 10:28:00,
2013-11-04 02:33:00,46.9,27.2,29.83,South,187,3.0,7.0,46,0.00,,,0.00,WeatherCatV1.21B27,2013-11-04 10:33:00,
2013-11-04 02:38:00,47.2,27.0,29.83,NNW,337,2.0,3.0,45,0.00,,,0.00,WeatherCatV1.21B27,2013-11-04 10:38:00,
2013-11-04 02:43:00,47.3,26.5,29.83,NNW,337,0.0,2.0,44,0.00,,,0.00,WeatherCatV1.21B27,2013-11-04 10:43:00,
2013-11-04 02:48:00,47.3,26.0,29.82,NNW,339,0.0,2.0,43,0.00,,,0.00,WeatherCatV1.21B27,2013-11-04 10:48:00,
2013-11-04 02:53:00,47.3,26.0,29.82,NNW,333,3.0,7.0,43,0.00,,,0.00,WeatherCatV1.21B27,2013-11-04 10:53:00,
2013-11-04 02:58:00,47.6,25.6,29.82,North,356,4.0,5.0,42,0.00,,,0.00,WeatherCatV1.21B27,2013-11-04 10:58:00,
2013-11-04 03:03:00,47.9,25.9,29.82,NE,49,0.0,0.0,42,0.00,,,0.00,WeatherCatV1.21B27,2013-11-04 11:03:00,
2013-11-04 03:08:00,47.8,25.3,29.82,NNW,336,0.0,4.0,41,0.00,,,0.00,WeatherCatV1.21B27,2013-11-04 11:08:00,
2013-11-04 03:13:00,47.9,25.4,29.82,NNW,333,0.0,4.0,41,0.00,,,0.00,WeatherCatV1.21B27,2013-11-04 11:13:00,
2013-11-04 03:14:00,47.9,25.4,29.82,NNW,336,4.0,10.0,41,0.00,,,0.00,WeatherCatV1.21B27,2013-11-04 11:14:00,
2013-11-04 03:19:00,48.0,25.4,29.82,NNW,332,5.0,5.0,41,0.00,,,0.00,WeatherCatV1.21B27,2013-11-04 11:19:00,
2013-11-04 03:22:00,47.9,25.4,29.82,NNW,331,2.0,3.0,41,0.00,,,0.00,WeatherCatV1.21B27,2013-11-04 11:22:00,
2013-11-04 03:27:00,47.8,25.8,29.82,North,358,3.0,6.0,42,0.00,,,0.00,WeatherCatV1.21B27,2013-11-04 11:27:00,
2013-11-04 03:32:00,47.6,25.6,29.82,North,352,1.0,2.0,42,0.00,,,0.00,WeatherCatV1.21B27,2013-11-04 11:32:00,
2013-11-04 03:37:00,47.4,25.5,29.82,NNW,327,4.0,4.0,42,0.00,,,0.00,WeatherCatV1.21B27,2013-11-04 11:37:00,
2013-11-04 03:42:00,47.4,26.0,29.82,NNW,344,0.0,2.0,43,0.00,,,0.00,WeatherCatV1.21B27,2013-11-04 11:42:00,
2013-11-04 03:47:00,47.3,26.0,29.82,NNW,344,3.0,5.0,43,0.00,,,0.00,WeatherCatV1.21B27,2013-11-04 11:47:00,
2013-11-04 03:52:00,47.2,25.9,29.82,North,356,6.0,6.0,43,0.00,,,0.00,WeatherCatV1.21B27,2013-11-04 11:52:00,
2013-11-04 03:57:00,47.1,25.8,29.82,NW,321,4.0,6.0,43,0.00,,,0.00,WeatherCatV1.21B27,2013-11-04 11:57:00,
2013-11-04 04:02:00,47.2,25.9,29.82,NNW,337,0.0,3.0,43,0.00,,,0.00,WeatherCatV1.21B27,2013-11-04 12:02:00,
2013-11-04 04:07:00,47.1,26.3,29.82,NNW,337,2.0,4.0,44,0.00,,,0.00,WeatherCatV1.21B27,2013-11-04 12:07:00,
2013-11-04 04:12:00,46.9,26.1,29.82,NNW,339,3.0,4.0,44,0.00,,,0.00,WeatherCatV1.21B27,2013-11-04 12:12:00,
2013-11-04 04:17:00,46.8,26.0,29.82,NNW,341,0.0,5.0,44,0.00,,,0.00,WeatherCatV1.21B27,2013-11-04 12:17:00,
2013-11-04 04:22:00,46.7,26.0,29.82,NNW,333,2.0,11.0,44,0.00,,,0.00,WeatherCatV1.21B27,2013-11-04 12:22:00,
2013-11-04 04:27:00,46.7,26.0,29.82,NNW,329,3.0,4.0,44,0.00,,,0.00,WeatherCatV1.21B27,2013-11-04 12:27:00,
2013-11-04 04:32:00,46.6,26.4,29.82,NNW,340,2.0,7.0,45,0.00,,,0.00,WeatherCatV1.21B27,2013-11-04 12:32:00,
2013-11-04 04:37:00,46.5,26.3,29.82,NNW,341,3.0,6.0,45,0.00,,,0.00,WeatherCatV1.21B27,2013-11-04 12:37:00,
2013-11-04 04:42:00,46.3,26.7,29.82,NNW,341,3.0,5.0,46,0.00,,,0.00,WeatherCatV1.21B27,2013-11-04 12:42:00,
2013-11-04 04:47:00,46.1,26.5,29.82,NNW,341,2.0,4.0,46,0.00,,,0.00,WeatherCatV1.21B27,2013-11-04 12:47:00,
2013-11-04 04:52:00,46.1,27.0,29.82,NNW,341,2.0,8.0,47,0.00,,,0.00,WeatherCatV1.21B27,2013-11-04 12:52:00,
2013-11-04 04:57:00,46.0,26.9,29.82,NNW,341,4.0,5.0,47,0.00,,,0.00,WeatherCatV1.21B27,2013-11-04 12:57:00,
2013-11-04 05:02:00,45.9,27.3,29.82,NNW,335,3.0,5.0,48,0.00,,,0.00,WeatherCatV1.21B27,2013-11-04 13:02:00,
2013-11-04 05:07:00,45.9,27.3,29.82,North,349,2.0,7.0,48,0.00,,,0.00,WeatherCatV1.21B27,2013-11-04 13:07:00,
2013-11-04 05:12:00,45.9,27.3,29.82,NNW,339,2.0,8.0,48,0.00,,,0.00,WeatherCatV1.21B27,2013-11-04 13:12:00,
2013-11-04 05:17:00,45.9,26.8,29.83,NNW,331,2.0,5.0,47,0.00,,,0.00,WeatherCatV1.21B27,2013-11-04 13:17:00,
2013-11-04 05:22:00,45.9,27.3,29.83,NNW,335,0.0,1.0,48,0.00,,,0.00,WeatherCatV1.21B27,2013-11-04 13:22:00,
2013-11-04 05:27:00,45.8,27.2,29.83,NNW,337,1.0,2.0,48,0.00,,,0.00,WeatherCatV1.21B27,2013-11-04 13:27:00,
2013-11-04 05:32:00,45.7,27.6,29.84,NNW,334,1.0,1.0,49,0.00,,,0.00,WeatherCatV1.21B27,2013-11-04 13:32:00,
2013-11-04 05:37:00,45.6,27.5,29.84,NNW,339,3.0,4.0,49,0.00,,,0.00,WeatherCatV1.21B27,2013-11-04 13:37:00,
2013-11-04 05:42:00,45.6,27.5,29.84,NNW,333,0.0,2.0,49,0.00,,,0.00,WeatherCatV1.21B27,2013-11-04 13:42:00,
2013-11-04 05:47:00,45.5,27.5,29.84,North,357,1.0,2.0,49,0.00,,,0.00,WeatherCatV1.21B27,2013-11-04 13:47:00,
2013-11-04 05:52:00,45.5,27.5,29.84,NNW,337,2.0,7.0,49,0.00,,,0.00,WeatherCatV1.21B27,2013-11-04 13:52:00,
2013-11-04 05:57:00,45.4,27.9,29.84,North,358,1.0,5.0,50,0.00,,,0.00,WeatherCatV1.21B27,2013-11-04 13:57:00,
2013-11-04 06:02:00,45.4,27.4,29.85,NE,48,1.0,11.0,49,0.00,,,0.00,WeatherCatV1.21B27,2013-11-04 14:02:00,
2013-11-04 06:07:00,45.5,27.5,29.85,North,350,2.0,3.0,49,0.00,,,0.00,WeatherCatV1.21B27,2013-11-04 14:07:00,
2013-11-04 06:12:00,45.5,27.5,29.85,NNW,331,5.0,10.0,49,0.00,,,0.00,WeatherCatV1.21B27,2013-11-04 14:12:00,
2013-11-04 06:17:00,45.5,27.5,29.86,NNW,345,4.0,4.0,49,0.00,,,0.00,WeatherCatV1.21B27,2013-11-04 14:17:00,
2013-11-04 06:22:00,45.2,27.2,29.86,North,351,2.0,5.0,49,0.00,,,0.00,WeatherCatV1.21B27,2013-11-04 14:22:00,
2013-11-04 06:27:00,45.2,27.7,29.86,North,349,4.0,4.0,50,0.00,,,0.00,WeatherCatV1.21B27,2013-11-04 14:27:00,
2013-11-04 06:32:00,45.1,27.6,29.86,ENE,59,3.0,5.0,50,0.00,,,0.00,WeatherCatV1.21B27,2013-11-04 14:32:00,
2013-11-04 06:37:00,44.9,27.9,29.86,NNW,343,2.0,4.0,51,0.00,,,0.00,WeatherCatV1.21B27,2013-11-04 14:37:00,
2013-11-04 06:42:00,44.8,27.8,29.86,NNW,343,6.0,6.0,51,0.00,,,0.00,WeatherCatV1.21B27,2013-11-04 14:42:00,
2013-11-04 06:47:00,44.8,27.8,29.86,NNW,347,3.0,4.0,51,0.00,,,0.00,WeatherCatV1.21B27,2013-11-04 14:47:00,
2013-11-04 06:52:00,44.7,27.7,29.86,NNW,337,3.0,6.0,51,0.00,,,0.00,WeatherCatV1.21B27,2013-11-04 14:52:00,
2013-11-04 06:57:00,45.0,28.0,29.86,NNW,332,4.0,7.0,51,0.00,,,0.00,WeatherCatV1.21B27,2013-11-04 14:57:00,
2013-11-04 07:02:00,45.1,27.6,29.86,NNW,347,4.0,6.0,50,0.00,,,0.00,WeatherCatV1.21B27,2013-11-04 15:02:00,
2013-11-04 07:07:00,45.1,27.6,29.86,NNW,337,1.0,6.0,50,0.00,,,0.00,WeatherCatV1.21B27,2013-11-04 15:07:00,
2013-11-04 07:12:00,45.2,27.7,29.86,NNW,341,4.0,4.0,50,0.00,,,0.00,WeatherCatV1.21B27,2013-11-04 15:12:00,
2013-11-04 07:17:00,45.4,27.9,29.88,NNW,336,4.0,6.0,50,0.00,,,0.00,WeatherCatV1.21B27,2013-11-04 15:17:00,
2013-11-04 07:22:00,45.8,27.7,29.88,NNW,333,6.0,8.0,49,0.00,,,0.00,WeatherCatV1.21B27,2013-11-04 15:22:00,
2013-11-04 07:27:00,46.1,27.5,29.88,NNW,340,3.0,7.0,48,0.00,,,0.00,WeatherCatV1.21B27,2013-11-04 15:27:00,
2013-11-04 07:32:00,46.3,27.7,29.88,NNW,339,5.0,8.0,48,0.00,,,0.00,WeatherCatV1.21B27,2013-11-04 15:32:00,
2013-11-04 07:37:00,46.5,27.9,29.88,North,356,3.0,7.0,48,0.00,,,0.00,WeatherCatV1.21B27,2013-11-04 15:37:00,
2013-11-04 07:42:00,46.8,27.6,29.88,North,354,5.0,11.0,47,0.00,,,0.00,WeatherCatV1.21B27,2013-11-04 15:42:00,
2013-11-04 07:47:00,47.0,26.8,29.89,North,352,4.0,9.0,45,0.00,,,0.00,WeatherCatV1.21B27,2013-11-04 15:47:00,
2013-11-04 07:52:00,47.2,28.0,29.89,NNW,331,4.0,4.0,47,0.00,,,0.00,WeatherCatV1.21B27,2013-11-04 15:52:00,
2013-11-04 07:57:00,47.2,28.0,29.89,NNW,329,4.0,4.0,47,0.00,,,0.00,WeatherCatV1.21B27,2013-11-04 15:57:00,
2013-11-04 08:02:00,47.2,28.5,29.90,NNW,333,1.0,4.0,48,0.00,,,0.00,WeatherCatV1.21B27,2013-11-04 16:02:00,
2013-11-04 08:07:00,47.2,28.0,29.90,NNW,331,3.0,6.0,47,0.00,,,0.00,WeatherCatV1.21B27,2013-11-04 16:07:00,
2013-11-04 08:12:00,47.3,29.1,29.90,NNW,338,1.0,4.0,49,0.00,,,0.00,WeatherCatV1.21B27,2013-11-04 16:12:00,
2013-11-04 08:17:00,47.5,28.8,29.90,NNW,344,3.0,3.0,48,0.00,,,0.00,WeatherCatV1.21B27,2013-11-04 16:17:00,
2013-11-04 08:22:00,47.8,28.0,29.90,NNW,332,1.0,5.0,46,0.00,,,0.00,WeatherCatV1.21B27,2013-11-04 16:22:00,
2013-11-04 08:27:00,48.1,28.3,29.90,NNW,339,3.0,7.0,46,0.00,,,0.00,WeatherCatV1.21B27,2013-11-04 16:27:00,
2013-11-04 08:32:00,48.3,27.4,29.90,NNW,340,4.0,7.0,44,0.00,,,0.00,WeatherCatV1.21B27,2013-11-04 16:32:00,
2013-11-04 08:37:00,48.6,27.1,29.90,NNW,335,4.0,4.0,43,0.00,,,0.00,WeatherCatV1.21B27,2013-11-04 16:37:00,
2013-11-04 08:42:00,48.9,27.4,29.90,NE,52,3.0,8.0,43,0.00,,,0.00,WeatherCatV1.21B27,2013-11-04 16:42:00,
2013-11-04 08:47:00,49.2,27.7,29.91,NNW,335,3.0,3.0,43,0.00,,,0.00,WeatherCatV1.21B27,2013-11-04 16:47:00,
2013-11-04 08:52:00,49.5,26.2,29.91,NNW,332,7.0,11.0,40,0.00,,,0.00,WeatherCatV1.21B27,2013-11-04 16:52:00,
2013-11-04 08:57:00,49.6,26.3,29.91,NNW,339,7.0,10.0,40,0.00,,,0.00,WeatherCatV1.21B27,2013-11-04 16:57:00,
2013-11-04 09:02:00,49.6,26.3,29.91,NNW,336,6.0,10.0,40,0.00,,,0.00,WeatherCatV1.21B27,2013-11-04 17:02:00,
2013-11-04 09:07:00,49.8,25.9,29.91,North,8,5.0,11.0,39,0.00,,,0.00,WeatherCatV1.21B27,2013-11-04 17:07:00,
2013-11-04 09:12:00,50.0,25.4,29.91,NW,306,8.0,10.0,38,0.00,,,0.00,WeatherCatV1.21B27,2013-11-04 17:12:00,
2013-11-04 09:17:00,50.1,24.9,29.91,NNW,343,6.0,14.0,37,0.00,,,0.00,WeatherCatV1.21B27,2013-11-04 17:17:00,
2013-11-04 09:22:00,50.3,25.7,29.91,NNW,337,8.0,9.0,38,0.00,,,0.00,WeatherCatV1.21B27,2013-11-04 17:22:00,
2013-11-04 09:27:00,50.5,25.2,29.91,NNW,348,7.0,9.0,37,0.00,,,0.00,WeatherCatV1.21B27,2013-11-04 17:27:00,
2013-11-04 09:32:00,50.8,25.5,29.91,North,5,3.0,7.0,37,0.00,,,0.00,WeatherCatV1.21B27,2013-11-04 17:32:00,
2013-11-04 09:37:00,51.3,25.9,29.91,North,354,2.0,5.0,37,0.00,,,0.00,WeatherCatV1.21B27,2013-11-04 17:37:00,
2013-11-04 09:42:00,51.5,25.4,29.91,NNW,333,9.0,9.0,36,0.00,,,0.00,WeatherCatV1.21B27,2013-11-04 17:42:00,
2013-11-04 09:47:00,51.4,25.4,29.93,NNW,330,7.0,9.0,36,0.00,,,0.00,WeatherCatV1.21B27,2013-11-04 17:47:00,
2013-11-04 09:52:00,51.0,25.0,29.93,North,350,2.0,12.0,36,0.00,,,0.00,WeatherCatV1.21B27,2013-11-04 17:52:00,
2013-11-04 09:57:00,51.2,25.2,29.93,North,1,8.0,8.0,36,0.00,,,0.00,WeatherCatV1.21B27,2013-11-04 17:57:00,
2013-11-04 10:02:00,51.2,25.2,29.93,North,355,1.0,10.0,36,0.00,,,0.00,WeatherCatV1.21B27,2013-11-04 18:02:00,
2013-11-04 10:07:00,51.5,25.4,29.93,NNE,20,1.0,6.0,36,0.00,,,0.00,WeatherCatV1.21B27,2013-11-04 18:07:00,
2013-11-04 10:12:00,51.9,25.8,29.93,NNE,14,2.0,7.0,36,0.00,,,0.00,WeatherCatV1.21B27,2013-11-04 18:12:00,
2013-11-04 10:17:00,52.7,25.8,29.93,NNW,342,5.0,9.0,35,0.00,,,0.00,WeatherCatV1.21B27,2013-11-04 18:17:00,
2013-11-04 10:22:00,52.6,25.7,29.93,NW,318,10.0,10.0,35,0.00,,,0.00,WeatherCatV1.21B27,2013-11-04 18:22:00,
2013-11-04 10:27:00,52.3,25.5,29.93,North,351,7.0,9.0,35,0.00,,,0.00,WeatherCatV1.21B27,2013-11-04 18:27:00,
2013-11-04 10:32:00,52.3,25.5,29.93,NNW,333,3.0,7.0,35,0.00,,,0.00,WeatherCatV1.21B27,2013-11-04 18:32:00,
2013-11-04 10:37:00,52.4,26.2,29.93,NNW,348,3.0,15.0,36,0.00,,,0.00,WeatherCatV1.21B27,2013-11-04 18:37:00,
2013-11-04 10:42:00,52.3,25.5,29.93,NNW,328,6.0,12.0,35,0.00,,,0.00,WeatherCatV1.21B27,2013-11-04 18:42:00,
2013-11-04 10:47:00,52.2,26.1,29.93,North,0,2.0,4.0,36,0.00,,,0.00,WeatherCatV1.21B27,2013-11-04 18:47:00,
2013-11-04 10:52:00,52.5,26.3,29.93,NNW,334,6.0,11.0,36,0.00,,,0.00,WeatherCatV1.21B27,2013-11-04 18:52:00,
2013-11-04 10:57:00,52.4,26.2,29.93,NNW,333,5.0,12.0,36,0.00,,,0.00,WeatherCatV1.21B27,2013-11-04 18:57:00,
2013-11-04 11:02:00,52.5,25.6,29.93,NNW,332,8.0,9.0,35,0.00,,,0.00,WeatherCatV1.21B27,2013-11-04 19:02:00,
2013-11-04 11:07:00,52.3,26.1,29.93,NW,314,5.0,7.0,36,0.00,,,0.00,WeatherCatV1.21B27,2013-11-04 19:07:00,
2013-11-04 11:12:00,52.5,26.3,29.93,NNW,335,6.0,10.0,36,0.00,,,0.00,WeatherCatV1.21B27,2013-11-04 19:12:00,
2013-11-04 11:17:00,52.7,25.8,29.92,NNW,331,5.0,10.0,35,0.00,,,0.00,WeatherCatV1.21B27,2013-11-04 19:17:00,
2013-11-04 11:22:00,52.8,25.9,29.92,NNW,332,4.0,10.0,35,0.00,,,0.00,WeatherCatV1.21B27,2013-11-04 19:22:00,
2013-11-04 11:27:00,53.2,26.3,29.92,NNW,337,7.0,8.0,35,0.00,,,0.00,WeatherCatV1.21B27,2013-11-04 19:27:00,
2013-11-04 11:32:00,53.4,26.4,29.91,NNW,340,3.0,7.0,35,0.00,,,0.00,WeatherCatV1.21B27,2013-11-04 19:32:00,
2013-11-04 11:37:00,53.7,26.0,29.91,NNW,335,6.0,8.0,34,0.00,,,0.00,WeatherCatV1.21B27,2013-11-04 19:37:00,
2013-11-04 11:42:00,53.8,26.1,29.91,NNW,345,5.0,9.0,34,0.00,,,0.00,WeatherCatV1.21B27,2013-11-04 19:42:00,
2013-11-04 11:47:00,54.2,25.7,29.91,NNW,340,2.0,9.0,33,0.00,,,0.00,WeatherCatV1.21B27,2013-11-04 19:47:00,
2013-11-04 11:52:00,54.4,26.6,29.91,NNW,333,7.0,8.0,34,0.00,,,0.00,WeatherCatV1.21B27,2013-11-04 19:52:00,
2013-11-04 11:57:00,54.4,25.9,29.91,NNW,335,7.0,7.0,33,0.00,,,0.00,WeatherCatV1.21B27,2013-11-04 19:57:00,
2013-11-04 12:02:00,54.4,26.6,29.91,NNW,329,5.0,10.0,34,0.00,,,0.00,WeatherCatV1.21B27,2013-11-04 20:02:00,
2013-11-04 12:07:00,54.5,26.0,29.91,NNW,335,6.0,10.0,33,0.00,,,0.00,WeatherCatV1.21B27,2013-11-04 20:07:00,
2013-11-04 12:12:00,54.4,26.6,29.91,North,354,5.0,9.0,34,0.00,,,0.00,WeatherCatV1.21B27,2013-11-04 20:12:00,
2013-11-04 12:17:00,54.3,26.5,29.91,NNW,348,5.0,10.0,34,0.00,,,0.00,WeatherCatV1.21B27,2013-11-04 20:17:00,
2013-11-04 12:22:00,54.4,26.6,29.91,North,350,4.0,5.0,34,0.00,,,0.00,WeatherCatV1.21B27,2013-11-04 20:22:00,
2013-11-04 12:27:00,54.6,26.8,29.91,NNW,341,1.0,6.0,34,0.00,,,0.00,WeatherCatV1.21B27,2013-11-04 20:27:00,
2013-11-04 12:32:00,54.9,27.1,29.91,NE,55,1.0,4.0,34,0.00,,,0.00,WeatherCatV1.21B27,2013-11-04 20:32:00,
2013-11-04 12:37:00,55.5,26.9,29.91,NW,318,4.0,4.0,33,0.00,,,0.00,WeatherCatV1.21B27,2013-11-04 20:37:00,
2013-11-04 12:42:00,55.9,27.2,29.91,East,81,1.0,5.0,33,0.00,,,0.00,WeatherCatV1.21B27,2013-11-04 20:42:00,
2013-11-04 12:47:00,56.0,27.3,29.91,North,3,0.0,3.0,33,0.00,,,0.00,WeatherCatV1.21B27,2013-11-04 20:47:00,
2013-11-04 12:52:00,56.3,26.8,29.91,NNW,333,4.0,6.0,32,0.00,,,0.00,WeatherCatV1.21B27,2013-11-04 20:52:00,
2013-11-04 12:57:00,56.4,26.9,29.91,North,350,2.0,2.0,32,0.00,,,0.00,WeatherCatV1.21B27,2013-11-04 20:57:00,
2013-11-04 13:02:00,56.3,26.1,29.90,North,358,2.0,4.0,31,0.00,,,0.00,WeatherCatV1.21B27,2013-11-04 21:02:00,
2013-11-04 13:07:00,56.2,26.7,29.90,North,355,1.0,10.0,32,0.00,,,0.00,WeatherCatV1.21B27,2013-11-04 21:07:00,
2013-11-04 13:12:00,56.2,26.0,29.90,NNW,344,4.0,7.0,31,0.00,,,0.00,WeatherCatV1.21B27,2013-11-04 21:12:00,
2013-11-04 13:17:00,56.0,25.8,29.90,NW,318,2.0,10.0,31,0.00,,,0.00,WeatherCatV1.21B27,2013-11-04 21:17:00,
2013-11-04 13:22:00,56.2,26.0,29.90,NNW,340,7.0,10.0,31,0.00,,,0.00,WeatherCatV1.21B27,2013-11-04 21:22:00,
2013-11-04 13:27:00,56.3,26.1,29.90,NNW,335,5.0,7.0,31,0.00,,,0.00,WeatherCatV1.21B27,2013-11-04 21:27:00,
2013-11-04 13:32:00,56.2,26.0,29.90,ENE,59,0.0,2.0,31,0.00,,,0.00,WeatherCatV1.21B27,2013-11-04 21:32:00,
2013-11-04 13:37:00,56.4,26.9,29.90,North,355,3.0,3.0,32,0.00,,,0.00,WeatherCatV1.21B27,2013-11-04 21:37:00,
2013-11-04 13:42:00,56.3,26.1,29.90,South,178,3.0,9.0,31,0.00,,,0.00,WeatherCatV1.21B27,2013-11-04 21:42:00,
2013-11-04 13:47:00,56.2,26.0,29.90,NNW,334,7.0,10.0,31,0.00,,,0.00,WeatherCatV1.21B27,2013-11-04 21:47:00,
2013-11-04 13:52:00,56.3,26.1,29.90,North,350,2.0,8.0,31,0.00,,,0.00,WeatherCatV1.21B27,2013-11-04 21:52:00,
2013-11-04 13:57:00,56.3,26.1,29.90,North,356,0.0,9.0,31,0.00,,,0.00,WeatherCatV1.21B27,2013-11-04 21:57:00,
2013-11-04 14:02:00,56.4,26.1,29.90,NNW,347,1.0,3.0,31,0.00,,,0.00,WeatherCatV1.21B27,2013-11-04 22:02:00,
2013-11-04 14:07:00,56.5,26.2,29.90,NNW,341,8.0,8.0,31,0.00,,,0.00,WeatherCatV1.21B27,2013-11-04 22:07:00,
2013-11-04 14:12:00,56.5,27.0,29.90,NNW,342,4.0,8.0,32,0.00,,,0.00,WeatherCatV1.21B27,2013-11-04 22:12:00,
2013-11-04 14:17:00,56.5,26.2,29.90,NNW,343,6.0,10.0,31,0.00,,,0.00,WeatherCatV1.21B27,2013-11-04 22:17:00,
2013-11-04 14:22:00,56.3,26.1,29.90,NNW,345,3.0,11.0,31,0.00,,,0.00,WeatherCatV1.21B27,2013-11-04 22:22:00,
2013-11-04 14:27:00,56.3,26.1,29.90,NNW,341,2.0,3.0,31,0.00,,,0.00,WeatherCatV1.21B27,2013-11-04 22:27:00,
2013-11-04 14:32:00,56.5,26.2,29.90,NNW,335,4.0,7.0,31,0.00,,,0.00,WeatherCatV1.21B27,2013-11-04 22:32:00,
2013-11-04 14:37:00,56.6,26.3,29.90,North,3,2.0,4.0,31,0.00,,,0.00,WeatherCatV1.21B27,2013-11-04 22:37:00,
2013-11-04 14:42:00,56.6,26.3,29.90,NNW,331,3.0,6.0,31,0.00,,,0.00,WeatherCatV1.21B27,2013-11-04 22:42:00,
2013-11-04 14:47:00,56.7,27.2,29.90,NNW,343,0.0,5.0,32,0.00,,,0.00,WeatherCatV1.21B27,2013-11-04 22:47:00,
2013-11-04 14:52:00,56.8,26.5,29.90,NNW,343,3.0,10.0,31,0.00,,,0.00,WeatherCatV1.21B27,2013-11-04 22:52:00,
2013-11-04 14:57:00,56.7,26.4,29.90,NNW,339,1.0,11.0,31,0.00,,,0.00,WeatherCatV1.21B27,2013-11-04 22:57:00,
2013-11-04 15:02:00,56.7,26.4,29.90,North,354,4.0,11.0,31,0.00,,,0.00,WeatherCatV1.21B27,2013-11-04 23:02:00,
2013-11-04 15:07:00,56.7,26.4,29.90,NNW,343,6.0,9.0,31,0.00,,,0.00,WeatherCatV1.21B27,2013-11-04 23:07:00,
2013-11-04 15:12:00,56.7,26.4,29.90,NW,314,6.0,8.0,31,0.00,,,0.00,WeatherCatV1.21B27,2013-11-04 23:12:00,
2013-11-04 15:17:00,56.8,26.5,29.90,NNW,333,0.0,4.0,31,0.00,,,0.00,WeatherCatV1.21B27,2013-11-04 23:17:00,
2013-11-04 15:22:00,56.8,26.5,29.90,NNW,339,0.0,4.0,31,0.00,,,0.00,WeatherCatV1.21B27,2013-11-04 23:22:00,
2013-11-04 15:27:00,56.8,26.5,29.90,NNW,337,2.0,3.0,31,0.00,,,0.00,WeatherCatV1.21B27,2013-11-04 23:27:00,
2013-11-04 15:32:00,56.7,26.4,29.91,NNW,344,3.0,5.0,31,0.00,,,0.00,WeatherCatV1.21B27,2013-11-04 23:32:00,
2013-11-04 15:37:00,56.6,26.3,29.91,NW,325,1.0,8.0,31,0.00,,,0.00,WeatherCatV1.21B27,2013-11-04 23:37:00,
2013-11-04 15:42:00,56.5,26.2,29.91,North,358,3.0,6.0,31,0.00,,,0.00,WeatherCatV1.21B27,2013-11-04 23:42:00,
2013-11-04 15:47:00,56.4,26.1,29.91,NNW,341,2.0,6.0,31,0.00,,,0.00,WeatherCatV1.21B27,2013-11-04 23:47:00,
2013-11-04 15:52:00,56.3,26.1,29.91,NW,311,12.0,15.0,31,0.00,,,0.00,WeatherCatV1.21B27,2013-11-04 23:52:00,
2013-11-04 15:57:00,56.2,26.0,29.91,NNW,340,6.0,6.0,31,0.00,,,0.00,WeatherCatV1.21B27,2013-11-04 23:57:00,
2013-11-04 16:02:00,56.2,26.0,29.91,NNW,328,6.0,8.0,31,0.00,,,0.00,WeatherCatV1.21B27,2013-11-05 00:02:00,
2013-11-04 16:07:00,56.2,26.0,29.91,North,350,5.0,12.0,31,0.00,,,0.00,WeatherCatV1.21B27,2013-11-05 00:07:00,
2013-11-04 16:12:00,56.1,25.9,29.91,NE,34,2.0,3.0,31,0.00,,,0.00,WeatherCatV1.21B27,2013-11-05 00:12:00,
2013-11-04 16:17:00,56.1,25.9,29.91,NNE,25,5.0,9.0,31,0.00,,,0.00,WeatherCatV1.21B27,2013-11-05 00:17:00,
2013-11-04 16:22:00,56.0,25.8,29.91,NNW,337,4.0,9.0,31,0.00,,,0.00,WeatherCatV1.21B27,2013-11-05 00:22:00,
2013-11-04 16:27:00,55.9,26.5,29.91,NNW,332,2.0,9.0,32,0.00,,,0.00,WeatherCatV1.21B27,2013-11-05 00:27:00,
2013-11-04 16:32:00,55.9,26.5,29.91,ENE,78,7.0,8.0,32,0.00,,,0.00,WeatherCatV1.21B27,2013-11-05 00:32:00,
2013-11-04 16:37:00,55.8,26.4,29.91,NNW,345,3.0,5.0,32,0.00,,,0.00,WeatherCatV1.21B27,2013-11-05 00:37:00,
2013-11-04 16:42:00,55.7,26.3,29.91,NNE,26,1.0,8.0,32,0.00,,,0.00,WeatherCatV1.21B27,2013-11-05 00:42:00,
2013-11-04 16:47:00,55.7,26.3,29.92,NW,325,5.0,5.0,32,0.00,,,0.00,WeatherCatV1.21B27,2013-11-05 00:47:00,
2013-11-04 16:52:00,55.7,25.5,29.92,NNW,339,4.0,5.0,31,0.00,,,0.00,WeatherCatV1.21B27,2013-11-05 00:52:00,
2013-11-04 16:57:00,55.7,25.5,29.92,NNW,334,3.0,6.0,31,0.00,,,0.00,WeatherCatV1.21B27,2013-11-05 00:57:00,
2013-11-04 17:02:00,55.6,26.2,29.93,NNW,343,0.0,3.0,32,0.00,,,0.00,WeatherCatV1.21B27,2013-11-05 01:02:00,
2013-11-04 17:07:00,55.5,26.1,29.93,NNW,331,5.0,5.0,32,0.00,,,0.00,WeatherCatV1.21B27,2013-11-05 01:07:00,
2013-11-04 17:12:00,55.5,26.1,29.93,North,355,1.0,5.0,32,0.00,,,0.00,WeatherCatV1.21B27,2013-11-05 01:12:00,
2013-11-04 17:17:00,55.4,26.0,29.92,NNW,334,1.0,4.0,32,0.00,,,0.00,WeatherCatV1.21B27,2013-11-05 01:17:00,
2013-11-04 17:22:00,55.3,26.0,29.92,NNW,337,0.0,2.0,32,0.00,,,0.00,WeatherCatV1.21B27,2013-11-05 01:22:00,
2013-11-04 17:27:00,55.2,26.6,29.92,North,355,1.0,3.0,33,0.00,,,0.00,WeatherCatV1.21B27,2013-11-05 01:27:00,
2013-11-04 17:32:00,55.0,27.1,29.93,NNW,328,0.0,1.0,34,0.00,,,0.00,WeatherCatV1.21B27,2013-11-05 01:32:00,
2013-11-04 17:37:00,55.0,25.7,29.93,NNW,338,1.0,3.0,32,0.00,,,0.00,WeatherCatV1.21B27,2013-11-05 01:37:00,
2013-11-04 17:42:00,54.9,25.6,29.93,North,9,5.0,7.0,32,0.00,,,0.00,WeatherCatV1.21B27,2013-11-05 01:42:00,
2013-11-04 17:47:00,55.2,24.3,29.93,NNW,327,1.0,5.0,30,0.00,,,0.00,WeatherCatV1.21B27,2013-11-05 01:47:00,
2013-11-04 17:52:00,55.5,24.6,29.93,NNW,344,2.0,9.0,30,0.00,,,0.00,WeatherCatV1.21B27,2013-11-05 01:52:00,
2013-11-04 17:57:00,55.9,24.1,29.93,NNW,343,2.0,9.0,29,0.00,,,0.00,WeatherCatV1.21B27,2013-11-05 01:57:00,
2013-11-04 18:02:00,56.0,25.0,29.94,North,2,0.0,3.0,30,0.00,,,0.00,WeatherCatV1.21B27,2013-11-05 02:02:00,
2013-11-04 18:07:00,55.9,24.9,29.94,North,356,4.0,6.0,30,0.00,,,0.00,WeatherCatV1.21B27,2013-11-05 02:07:00,
2013-11-04 18:12:00,55.9,24.1,29.94,NNW,345,4.0,6.0,29,0.00,,,0.00,WeatherCatV1.21B27,2013-11-05 02:12:00,
2013-11-04 18:17:00,56.2,23.5,29.94,NNW,336,4.0,13.0,28,0.00,,,0.00,WeatherCatV1.21B27,2013-11-05 02:17:00,
2013-11-04 18:22:00,56.4,23.7,29.94,North,349,3.0,7.0,28,0.00,,,0.00,WeatherCatV1.21B27,2013-11-05 02:22:00,
2013-11-04 18:27:00,56.4,23.7,29.94,NNW,342,5.0,7.0,28,0.00,,,0.00,WeatherCatV1.21B27,2013-11-05 02:27:00,
2013-11-04 18:32:00,56.4,23.7,29.94,NNW,343,4.0,6.0,28,0.00,,,0.00,WeatherCatV1.21B27,2013-11-05 02:32:00,
2013-11-04 18:37:00,56.6,23.9,29.94,NW,321,5.0,11.0,28,0.00,,,0.00,WeatherCatV1.21B27,2013-11-05 02:37:00,
2013-11-04 18:42:00,56.7,24.0,29.94,NNW,343,5.0,7.0,28,0.00,,,0.00,WeatherCatV1.21B27,2013-11-05 02:42:00,
2013-11-04 18:47:00,56.7,24.0,29.96,NNW,337,9.0,10.0,28,0.00,,,0.00,WeatherCatV1.21B27,2013-11-05 02:47:00,
2013-11-04 18:52:00,56.8,24.0,29.96,NNW,329,7.0,7.0,28,0.00,,,0.00,WeatherCatV1.21B27,2013-11-05 02:52:00,
2013-11-04 18:57:00,56.8,24.0,29.96,NNW,333,4.0,6.0,28,0.00,,,0.00,WeatherCatV1.21B27,2013-11-05 02:57:00,
2013-11-04 19:02:00,56.9,23.3,29.95,NNW,338,4.0,8.0,27,0.00,,,0.00,WeatherCatV1.21B27,2013-11-05 03:02:00,
2013-11-04 19:07:00,56.9,24.1,29.95,NNW,336,8.0,11.0,28,0.00,,,0.00,WeatherCatV1.21B27,2013-11-05 03:07:00,
2013-11-04 19:12:00,56.8,24.0,29.95,NNW,335,6.0,9.0,28,0.00,,,0.00,WeatherCatV1.21B27,2013-11-05 03:12:00,
2013-11-04 19:17:00,56.6,23.9,29.95,NNW,340,4.0,8.0,28,0.00,,,0.00,WeatherCatV1.21B27,2013-11-05 03:17:00,
2013-11-04 19:22:00,56.5,24.6,29.95,NNW,327,10.0,10.0,29,0.00,,,0.00,WeatherCatV1.21B27,2013-11-05 03:22:00,
2013-11-04 19:27:00,56.3,24.5,29.95,NNW,331,9.0,11.0,29,0.00,,,0.00,WeatherCatV1.21B27,2013-11-05 03:27:00,
2013-11-04 19:32:00,56.4,24.5,29.94,SSW,212,7.0,13.0,29,0.00,,,0.00,WeatherCatV1.21B27,2013-11-05 03:32:00,
2013-11-04 19:37:00,56.4,23.7,29.94,NNW,331,5.0,6.0,28,0.00,,,0.00,WeatherCatV1.21B27,2013-11-05 03:37:00,
2013-11-04 19:42:00,56.5,23.8,29.94,North,355,7.0,11.0,28,0.00,,,0.00,WeatherCatV1.21B27,2013-11-05 03:42:00,
2013-11-04 19:47:00,56.6,23.9,29.95,NNW,341,6.0,9.0,28,0.00,,,0.00,WeatherCatV1.21B27,2013-11-05 03:47:00,
2013-11-04 19:52:00,56.6,23.9,29.95,NNW,344,2.0,12.0,28,0.00,,,0.00,WeatherCatV1.21B27,2013-11-05 03:52:00,
2013-11-04 19:57:00,56.5,23.8,29.95,NNW,344,4.0,9.0,28,0.00,,,0.00,WeatherCatV1.21B27,2013-11-05 03:57:00,
2013-11-04 20:02:00,56.4,23.7,29.95,NNW,333,4.0,10.0,28,0.00,,,0.00,WeatherCatV1.21B27,2013-11-05 04:02:00,
2013-11-04 20:07:00,56.4,23.7,29.95,North,358,5.0,6.0,28,0.00,,,0.00,WeatherCatV1.21B27,2013-11-05 04:07:00,
2013-11-04 20:12:00,56.4,23.7,29.95,North,359,4.0,7.0,28,0.00,,,0.00,WeatherCatV1.21B27,2013-11-05 04:12:00,
2013-11-04 20:17:00,56.4,23.7,29.96,NNW,344,7.0,8.0,28,0.00,,,0.00,WeatherCatV1.21B27,2013-11-05 04:17:00,
2013-11-04 20:22:00,56.5,23.8,29.96,NNW,342,5.0,9.0,28,0.00,,,0.00,WeatherCatV1.21B27,2013-11-05 04:22:00,
2013-11-04 20:27:00,56.6,23.9,29.96,NNW,344,3.0,10.0,28,0.00,,,0.00,WeatherCatV1.21B27,2013-11-05 04:27:00,
2013-11-04 20:32:00,56.7,24.0,29.96,NNW,327,4.0,10.0,28,0.00,,,0.00,WeatherCatV1.21B27,2013-11-05 04:32:00,
2013-11-04 20:37:00,56.8,24.0,29.96,NNW,348,5.0,16.0,28,0.00,,,0.00,WeatherCatV1.21B27,2013-11-05 04:37:00,
2013-11-04 20:42:00,56.7,24.0,29.96,North,350,2.0,6.0,28,0.00,,,0.00,WeatherCatV1.21B27,2013-11-05 04:42:00,
2013-11-04 20:47:00,56.7,24.0,29.96,North,359,1.0,9.0,28,0.00,,,0.00,WeatherCatV1.21B27,2013-11-05 04:47:00,
2013-11-04 20:52:00,56.7,24.0,29.96,NNW,345,3.0,5.0,28,0.00,,,0.00,WeatherCatV1.21B27,2013-11-05 04:52:00,
2013-11-04 20:57:00,56.6,23.9,29.96,NNW,344,2.0,3.0,28,0.00,,,0.00,WeatherCatV1.21B27,2013-11-05 04:57:00,
2013-11-04 21:01:00,56.5,23.8,29.97,NNW,348,4.0,9.0,28,0.00,,,0.00,WeatherCatV1.21B27,2013-11-05 05:01:00,
2013-11-04 21:02:00,56.5,24.6,29.97,NNW,335,5.0,6.0,29,0.00,,,0.00,WeatherCatV1.21B27,2013-11-05 05:02:00,
2013-11-04 21:03:00,56.5,24.6,29.97,NNW,335,3.0,6.0,29,0.00,,,0.00,WeatherCatV1.21B27,2013-11-05 05:03:00,
2013-11-04 21:08:00,56.3,24.5,29.97,NNW,333,5.0,7.0,29,0.00,,,0.00,WeatherCatV1.21B27,2013-11-05 05:08:00,
2013-11-04 21:13:00,56.3,24.5,29.97,NNW,338,6.0,8.0,29,0.00,,,0.00,WeatherCatV1.21B27,2013-11-05 05:13:00,
2013-11-04 21:18:00,56.2,24.4,29.98,North,355,5.0,10.0,29,0.00,,,0.00,WeatherCatV1.21B27,2013-11-05 05:18:00,
2013-11-04 21:23:00,56.2,24.4,29.98,NNW,338,4.0,12.0,29,0.00,,,0.00,WeatherCatV1.21B27,2013-11-05 05:23:00,
2013-11-04 21:28:00,56.2,25.2,29.98,NNW,342,9.0,9.0,30,0.00,,,0.00,WeatherCatV1.21B27,2013-11-05 05:28:00,
2013-11-04 21:33:00,56.3,24.5,29.98,NNW,339,8.0,12.0,29,0.00,,,0.00,WeatherCatV1.21B27,2013-11-05 05:33:00,
2013-11-04 21:38:00,56.3,25.3,29.98,NNW,335,8.0,8.0,30,0.00,,,0.00,WeatherCatV1.21B27,2013-11-05 05:38:00,
2013-11-04 21:43:00,56.4,25.4,29.98,NNW,345,7.0,10.0,30,0.00,,,0.00,WeatherCatV1.21B27,2013-11-05 05:43:00,
2013-11-04 21:48:00,56.4,25.4,29.98,NNW,348,4.0,9.0,30,0.00,,,0.00,WeatherCatV1.21B27,2013-11-05 05:48:00,
2013-11-04 21:53:00,56.2,25.2,29.98,NNW,330,4.0,17.0,30,0.00,,,0.00,WeatherCatV1.21B27,2013-11-05 05:53:00,
2013-11-04 21:58:00,56.2,25.2,29.98,North,349,4.0,11.0,30,0.00,,,0.00,WeatherCatV1.21B27,2013-11-05 05:58:00,
2013-11-04 22:03:00,56.2,25.2,29.98,NNW,341,4.0,10.0,30,0.00,,,0.00,WeatherCatV1.21B27,2013-11-05 06:03:00,
2013-11-04 22:08:00,56.0,25.8,29.98,North,359,7.0,11.0,31,0.00,,,0.00,WeatherCatV1.21B27,2013-11-05 06:08:00,
2013-11-04 22:13:00,56.1,25.9,29.98,ENE,69,4.0,14.0,31,0.00,,,0.00,WeatherCatV1.21B27,2013-11-05 06:13:00,
2013-11-04 22:18:00,56.1,25.9,29.98,North,359,5.0,12.0,31,0.00,,,0.00,WeatherCatV1.21B27,2013-11-05 06:18:00,
2013-11-04 22:23:00,56.2,26.0,29.98,North,8,6.0,8.0,31,0.00,,,0.00,WeatherCatV1.21B27,2013-11-05 06:23:00,
2013-11-04 22:28:00,56.2,26.0,29.98,NNW,329,4.0,14.0,31,0.00,,,0.00,WeatherCatV1.21B27,2013-11-05 06:28:00,
2013-11-04 22:33:00,56.3,25.3,29.97,NNW,333,8.0,9.0,30,0.00,,,0.00,WeatherCatV1.21B27,2013-11-05 06:33:00,
2013-11-04 22:38:00,56.4,25.4,29.97,North,0,4.0,9.0,30,0.00,,,0.00,WeatherCatV1.21B27,2013-11-05 06:38:00,
2013-11-04 22:43:00,56.4,25.4,29.97,North,350,3.0,11.0,30,0.00,,,0.00,WeatherCatV1.21B27,2013-11-05 06:43:00,
2013-11-04 22:48:00,56.4,25.4,29.97,NNW,331,5.0,10.0,30,0.00,,,0.00,WeatherCatV1.21B27,2013-11-05 06:48:00,
2013-11-04 22:53:00,56.4,25.4,29.97,SE,136,5.0,13.0,30,0.00,,,0.00,WeatherCatV1.21B27,2013-11-05 06:53:00,
2013-11-04 22:58:00,56.3,26.1,29.97,North,8,3.0,6.0,31,0.00,,,0.00,WeatherCatV1.21B27,2013-11-05 06:58:00,
2013-11-04 23:03:00,56.1,25.9,29.97,NNW,329,7.0,10.0,31,0.00,,,0.00,WeatherCatV1.21B27,2013-11-05 07:03:00,
2013-11-04 23:08:00,56.3,25.3,29.97,NNW,342,12.0,14.0,30,0.00,,,0.00,WeatherCatV1.21B27,2013-11-05 07:08:00,
2013-11-04 23:13:00,56.4,25.4,29.97,NNW,335,11.0,11.0,30,0.00,,,0.00,WeatherCatV1.21B27,2013-11-05 07:13:00,
2013-11-04 23:18:00,56.4,25.4,29.97,North,358,8.0,14.0,30,0.00,,,0.00,WeatherCatV1.21B27,2013-11-05 07:18:00,
2013-11-04 23:23:00,56.3,25.3,29.97,NW,324,12.0,12.0,30,0.00,,,0.00,WeatherCatV1.21B27,2013-11-05 07:23:00,
2013-11-04 23:28:00,56.3,25.3,29.97,NNW,345,7.0,9.0,30,0.00,,,0.00,WeatherCatV1.21B27,2013-11-05 07:28:00,
2013-11-04 23:33:00,56.3,25.3,29.97,ENE,59,7.0,13.0,30,0.00,,,0.00,WeatherCatV1.21B27,2013-11-05 07:33:00,
2013-11-04 23:38:00,56.4,24.5,29.97,NNW,337,7.0,10.0,29,0.00,,,0.00,WeatherCatV1.21B27,2013-11-05 07:38:00,
2013-11-04 23:43:00,56.5,24.6,29.97,West,269,2.0,12.0,29,0.00,,,0.00,WeatherCatV1.21B27,2013-11-05 07:43:00,
2013-11-04 23:48:00,56.5,24.6,29.97,NNW,333,6.0,9.0,29,0.00,,,0.00,WeatherCatV1.21B27,2013-11-05 07:48:00,
2013-11-04 23:53:00,56.5,24.6,29.97,SE,139,11.0,11.0,29,0.00,,,0.00,WeatherCatV1.21B27,2013-11-05 07:53:00,
2013-11-04 23:58:00,56.4,25.4,29.97,NNW,328,10.0,14.0,30,0.00,,,0.00,WeatherCatV1.21B27,2013-11-05 07:58:00,